Wetbulb
74.81 75.46 75.27 71.26 62.24 63.20 60.21 61.12 65.84 63.94 64.21 67.09 67.69 65.40 64.83 66.31 63.83 61.20 73.04 74.50 75.13 75.15 76.17 75.79 77.83 77.65 77.21 77.40 77.29 77.24 77.30 76.98 77.05 76.83 76.78 76.75 76.69 76.58 76.56 75.53 75.72 75.76 75.42 74.84 74.73 75.29 75.89 75.70 75.87
73.32 73.87 71.02 67.12 61.32 58.41 59.77 64.04 63.04 65.09 65.84 66.51 67.12 66.91 64.29 64.04 67.95 69.53 71.20 74.51 75.42 75.36 75.92 75.28 77.76 77.47 77.17 77.36 77.24 77.37 77.29 77.40 77.30 76.94 76.97 76.83 76.66 76.48 76.43 75.78 76.31 75.99 75.54 75.78 75.45 75.42 75.51 76.02 76.06
74.25 73.10 66.81 62.97 60.86 60.02 59.42 63.98 65.15 66.41 67.19 66.07 66.07 66.79 66.14 65.07 68.50 70.53 74.23 74.90 75.59 75.45 75.49 76.71 77.57 77.60 77.27 77.30 77.45 77.32 77.16 77.05 76.83 77.10 77.02 76.91 76.56 76.40 75.89 76.19 76.28 76.17 75.54 75.34 75.42 75.65 75.95 76.03 75.83
72.56 71.75 69.82 62.28 59.90 63.08 63.51 65.83 66.73 65.88 67.57 68.20 67.82 62.08 65.51 69.81 69.94 72.53 74.66 74.71 74.81 74.94 75.23 77.21 77.35 77.02 77.07 77.20 77.17 77.29 77.02 77.06 76.74 76.96 76.59 76.60 76.68 77.11 76.48 76.28 76.12 76.20 75.95 75.56 75.45 75.08 75.26 74.87 75.12
73.10 70.45 62.71 61.70 61.15 63.88 66.40 67.84 67.69 66.61 67.24 67.12 67.80 64.47 64.03 67.86 71.52 73.90 74.09 74.24 74.20 74.03 75.23 76.69 78.26 77.49 77.07 77.19 77.15 76.62 77.04 76.98 76.92 76.97 76.89 76.57 76.94 77.00 76.20 75.76 75.73 75.64 75.92 75.65 75.15 75.15 75.30 75.20 75.17
68.09 69.02 61.42 60.04 61.27 64.40 67.05 68.24 68.02 67.30 67.56 67.39 66.29 65.27 65.19 70.54 71.74 73.32 74.26 73.95 73.74 73.67 74.85 75.88 77.74 77.44 77.12 77.01 77.25 77.24 77.19 77.39 76.82 77.04 76.98 76.93 76.68 76.41 76.75 76.56 75.98 76.01 75.70 75.62 75.23 75.01 75.00 75.29 75.51
66.27 64.07 60.73 60.83 61.23 62.81 65.25 69.22 67.86 67.50 67.04 66.36 68.87 64.37 66.77 69.21 72.51 73.87 74.14 73.80 73.43 73.93 75.04 75.86 76.88 77.76 77.04 76.77 76.88 77.38 77.26 77.19 77.00 77.32 77.04 77.12 76.53 76.98 77.08 76.39 75.98 75.92 75.42 75.34 75.37 75.23 74.81 74.77 75.48
68.64 65.61 61.39 62.20 61.34 61.94 66.45 68.50 69.46 68.13 66.34 69.98 69.51 64.87 64.42 69.26 71.32 73.59 74.03 73.52 73.16 73.62 75.03 75.38 76.24 77.32 77.80 77.03 77.10 77.33 77.42 77.22 77.31 77.31 77.31 77.27 77.47 77.22 76.42 76.82 75.87 75.50 75.60 75.30 75.28 75.12 75.20 75.64 75.73
70.15 63.44 60.69 61.22 61.78 64.08 68.03 67.22 69.72 69.21 67.10 66.67 68.76 68.45 70.48 71.58 71.68 70.87 71.63 72.25 72.61 72.67 74.36 74.98 75.06 77.25 77.91 76.42 77.35 77.06 77.18 77.11 76.98 77.00 76.99 77.48 77.00 77.01 77.18 76.05 75.55 75.53 75.61 75.78 75.50 75.31 75.28 76.09 76.17
65.97 63.57 61.75 65.24 65.31 64.69 67.16 67.73 68.60 67.33 66.41 65.37 66.89 69.62 70.84 71.09 70.32 70.17 70.45 70.67 71.20 71.40 73.04 74.21 74.57 75.95 77.31 75.27 76.81 77.03 76.60 76.47 77.01 77.42 77.45 77.36 77.47 77.37 76.65 76.27 75.76 75.83 75.60 76.03 75.70 75.50 75.27 75.98 75.26
65.02 62.00 64.18 65.65 66.35 67.46 66.64 67.29 69.65 66.77 65.48 67.39 66.85 68.20 69.80 70.15 71.02 70.85 71.00 71.44 71.37 71.99 72.67 73.56 74.68 75.47 75.99 75.76 76.06 76.03 76.46 76.39 77.04 77.57 77.54 77.51 76.99 76.42 76.94 75.86 76.28 76.17 76.56 76.12 76.58 76.19 75.13 75.11 75.29
61.43 64.08 65.58 66.71 66.98 66.57 66.15 68.73 67.49 67.94 68.67 70.85 70.16 69.93 70.00 69.87 69.99 70.52 70.64 71.33 71.52 71.59 72.33 73.71 75.02 75.63 76.00 75.70 75.57 75.85 75.62 76.28 75.98 76.71 77.32 77.19 76.01 76.42 76.27 76.43 76.06 77.40 76.44 76.87 77.52 76.53 76.67 76.43 76.32
61.78 62.43 64.15 67.78 67.29 66.10 66.61 67.06 67.14 67.86 70.07 71.26 70.74 69.81 69.42 69.78 70.02 70.88 71.57 72.08 71.65 71.07 72.10 73.54 75.16 75.75 76.62 76.35 75.57 75.68 75.99 76.35 76.79 76.65 76.69 77.73 77.15 76.60 76.39 76.81 76.56 77.25 77.45 76.45 76.10 76.66 76.92 76.40 75.42
58.34 60.72 62.51 65.35 65.60 65.93 64.66 65.71 67.20 68.62 70.72 70.09 69.61 68.95 69.61 69.69 69.87 70.53 70.99 71.33 71.22 71.15 71.77 73.58 74.63 75.57 76.84 76.27 77.00 76.09 76.22 76.61 76.66 76.55 75.97 77.16 78.03 77.82 76.78 76.79 76.51 76.59 77.57 76.41 77.22 76.75 74.78 77.04 76.19
57.98 55.99 58.57 59.75 62.24 63.27 65.96 63.34 64.48 69.61 70.27 69.02 68.91 69.02 69.32 69.80 70.34 69.94 70.99 71.22 71.51 71.36 71.96 73.19 74.43 75.26 76.39 76.57 76.53 75.88 75.86 75.65 75.98 76.31 76.62 77.00 77.86 77.65 78.05 76.54 77.51 77.10 77.57 76.87 76.16 76.85 73.37 74.87 74.66
53.17 53.78 51.92 57.63 58.08 62.02 64.85 59.42 66.00 69.65 69.18 68.22 68.52 68.59 68.94 69.63 70.01 70.59 71.33 71.75 72.19 71.65 71.58 73.12 73.54 74.27 75.50 76.32 76.08 75.19 75.23 75.86 76.51 76.80 77.11 76.95 77.80 79.15 78.32 77.18 77.34 77.01 77.61 76.03 75.54 75.68 73.68 73.82 73.59
51.11 47.65 49.42 53.32 58.62 61.54 63.57 61.28 66.80 69.22 68.81 68.03 68.55 68.56 68.74 69.29 69.91 70.66 71.41 71.77 71.88 72.05 72.48 72.73 73.66 73.35 74.26 75.77 75.66 75.37 76.10 75.57 76.02 76.90 77.37 78.56 77.79 77.88 78.20 77.89 78.25 77.02 76.43 75.59 75.46 74.87 75.33 74.02 73.28
47.54 47.60 50.44 51.11 56.55 60.61 61.95 62.31 66.18 67.80 68.05 67.94 68.33 68.47 68.69 68.97 69.48 70.75 71.35 72.10 72.14 72.45 73.46 73.67 73.65 74.01 74.71 74.38 75.13 74.58 74.79 75.39 76.66 76.66 77.11 78.53 78.34 78.21 78.62 78.64 77.54 77.00 75.89 75.54 75.90 76.38 75.24 74.41 72.59
49.96 49.95 49.18 52.93 55.63 60.20 61.04 62.34 64.82 66.91 67.37 67.66 68.20 68.47 68.33 69.12 70.85 71.53 71.76 72.08 71.98 72.43 73.01 73.53 73.46 74.64 73.97 72.99 72.20 73.01 73.48 75.08 75.66 76.29 77.57 78.30 78.69 78.53 78.92 77.73 77.30 76.91 75.80 76.27 76.39 75.47 74.79 72.74 74.17
49.84 48.86 49.66 52.33 55.64 56.51 61.08 61.53 63.94 66.41 66.48 67.69 68.07 68.37 68.58 68.89 70.31 71.09 71.68 71.99 71.92 71.82 72.77 73.58 73.81 74.50 74.42 72.92 73.21 73.90 74.93 75.50 76.29 76.85 77.74 78.67 78.64 78.78 78.56 78.27 78.65 77.06 76.17 76.12 75.29 76.10 73.50 73.65 73.71
48.80 48.34 49.00 49.79 53.78 56.51 58.40 59.20 61.70 64.53 67.13 67.51 68.51 69.54 69.62 68.89 69.07 70.46 71.10 71.46 72.29 71.98 72.36 73.37 74.51 74.89 74.91 75.48 74.00 75.39 76.04 76.28 75.82 76.13 76.75 77.82 78.49 78.46 78.88 77.89 77.92 77.28 76.43 74.94 75.89 75.89 75.42 70.92 73.20
46.74 50.07 49.36 48.95 50.10 49.05 56.43 51.79 59.41 62.49 63.98 65.84 67.27 68.42 69.22 69.47 69.76 70.77 71.11 71.32 72.17 72.78 73.40 73.93 74.81 75.23 74.93 75.30 75.56 77.06 74.19 73.33 74.17 75.39 75.51 76.32 78.39 78.24 78.33 78.85 78.77 79.14 79.73 76.49 75.98 75.83 75.39 74.96 71.00
47.94 51.01 49.63 49.14 47.94 48.58 52.14 51.52 56.59 61.94 61.24 64.63 66.47 67.78 69.07 69.70 70.06 70.06 71.21 71.84 72.63 73.38 73.57 74.35 74.96 75.46 76.60 76.21 76.35 75.00 75.35 73.79 74.33 75.07 77.25 77.91 78.55 78.37 77.82 78.46 78.81 78.50 77.91 78.49 76.99 76.98 76.71 74.78 73.16
51.87 50.15 49.45 49.21 47.79 42.93 48.23 51.12 53.36 57.48 61.24 64.42 66.89 67.82 68.63 69.86 70.24 70.98 71.66 72.63 72.62 73.46 73.61 74.08 75.17 76.56 76.76 75.99 75.51 76.67 77.00 76.39 74.58 75.47 74.74 74.91 75.61 76.82 78.15 77.95 78.64 79.01 77.47 77.35 77.65 77.62 77.59 77.08 75.83
50.76 48.18 43.62 41.63 41.54 41.04 47.96 47.16 52.15 59.27 62.02 63.90 65.94 67.50 68.99 70.07 70.41 70.67 70.95 71.33 72.24 72.65 73.17 73.59 76.19 76.47 77.04 75.54 75.55 75.24 76.19 76.62 76.35 76.12 74.80 76.60 74.33 74.66 76.71 78.46 78.41 77.85 78.94 78.27 78.91 78.69 77.68 77.48 76.24
49.77 48.57 44.89 40.36 41.20 43.22 48.21 44.27 48.43 57.52 60.75 64.23 65.87 67.89 69.32 70.20 70.75 70.81 71.42 71.73 72.00 72.73 73.29 74.16 76.20 76.22 76.09 76.07 77.20 77.76 77.65 74.80 75.41 76.29 75.28 74.93 74.43 74.80 77.03 77.89 78.07 78.30 78.37 78.56 79.02 77.63 76.99 77.95 76.83
49.96 46.56 51.02 46.82 48.51 45.79 47.38 48.74 52.18 55.26 57.75 60.49 62.88 65.57 67.26 69.53 70.65 71.10 71.66 72.24 72.53 72.73 74.26 75.40 76.48 77.17 76.81 75.54 77.65 77.82 77.65 77.16 75.69 78.63 77.73 75.54 77.28 75.54 76.51 76.94 77.73 77.82 77.89 78.62 78.96 77.30 78.26 77.92 77.95
50.84 53.03 45.94 47.19 41.26 41.18 46.02 47.70 47.33 51.75 55.39 58.23 59.99 61.83 65.74 68.66 70.30 71.44 72.20 72.49 73.16 73.47 73.79 74.47 76.08 76.90 76.84 75.75 76.17 75.97 76.91 76.91 77.65 77.31 77.63 77.83 77.35 77.05 76.51 76.78 76.66 76.83 77.48 78.04 78.77 77.73 78.36 78.66 77.46
48.47 47.51 49.35 49.57 47.39 43.27 42.75 46.69 54.40 54.32 55.43 57.46 59.28 61.54 63.59 67.07 69.45 70.93 72.32 73.20 73.60 74.04 74.01 73.87 74.63 75.09 75.36 75.95 76.83 77.49 76.46 76.29 76.73 76.14 76.73 77.28 77.59 77.40 77.38 76.74 76.33 76.19 76.87 77.69 78.08 77.91 77.38 77.29 78.38
46.43 48.50 49.55 45.69 45.00 47.16 47.19 48.43 55.79 56.56 57.02 57.40 58.66 61.45 63.18 65.14 67.19 69.80 71.35 72.93 73.33 73.53 73.77 73.88 74.17 74.33 75.01 76.54 77.59 76.91 77.18 77.37 75.89 76.25 76.62 77.30 77.06 77.79 77.54 77.54 77.16 76.30 76.29 77.44 77.47 77.05 76.44 76.55 76.84
MSLP
1012.10 1011.80 1011.75 1012.04 1012.15 1010.31 1007.80 1006.88 1005.68 1006.13 1006.56 1007.21 1007.61 1008.01 1008.63 1009.60 1009.66 1011.26 1012.77 1013.23 1013.88 1014.72 1015.53 1016.08 1016.55 1016.84 1017.08 1017.29 1017.48 1017.62 1017.72 1017.90 1018.00 1018.18 1018.35 1018.45 1018.55 1018.65 1018.76 1018.84 1018.94 1019.03 1018.98 1019.01 1019.06 1019.03 1019.03 1019.11 1019.17
1011.77 1011.62 1012.41 1011.76 1010.59 1008.25 1006.92 1006.02 1005.43 1005.79 1007.04 1007.74 1008.37 1008.78 1009.74 1010.39 1011.44 1012.13 1012.76 1013.34 1013.84 1014.57 1015.04 1015.83 1016.75 1016.97 1017.24 1017.44 1017.64 1017.81 1017.92 1018.08 1018.21 1018.45 1018.50 1018.58 1018.69 1018.74 1018.84 1018.95 1019.00 1019.05 1019.12 1019.18 1019.22 1019.26 1019.32 1019.47 1019.44
1011.75 1011.84 1011.77 1010.80 1009.00 1006.83 1006.07 1005.68 1005.70 1006.32 1007.42 1008.39 1008.98 1010.08 1010.47 1011.25 1012.16 1012.53 1012.85 1013.51 1013.78 1014.30 1014.94 1016.28 1016.91 1017.15 1017.43 1017.66 1017.83 1017.99 1018.13 1018.32 1018.54 1018.59 1018.66 1018.76 1018.80 1018.95 1019.08 1019.09 1019.19 1019.35 1019.48 1019.48 1019.47 1019.53 1019.53 1019.62 1019.77
1010.94 1011.30 1010.40 1009.23 1006.68 1005.66 1005.24 1005.37 1006.04 1006.43 1007.24 1007.88 1008.92 1010.74 1012.17 1012.48 1012.25 1012.49 1013.12 1013.55 1013.94 1014.45 1015.22 1016.80 1017.03 1017.31 1017.64 1017.90 1018.08 1018.18 1018.33 1018.53 1018.66 1018.76 1018.89 1018.86 1019.03 1019.15 1019.25 1019.42 1019.50 1019.53 1019.54 1019.71 1019.87 1019.75 1019.90 1019.92 1020.07
1010.20 1009.30 1008.28 1007.14 1005.47 1005.04 1004.79 1005.08 1005.77 1006.03 1006.95 1008.03 1008.72 1010.42 1012.16 1013.35 1013.16 1012.98 1013.31 1013.65 1013.94 1014.44 1015.43 1016.58 1017.15 1017.49 1017.88 1018.07 1018.23 1018.41 1018.57 1018.68 1018.86 1018.96 1019.12 1019.10 1019.20 1019.31 1019.54 1019.68 1019.73 1019.74 1019.78 1019.90 1020.09 1020.16 1020.22 1020.23 1020.25
1009.17 1008.72 1006.62 1005.32 1004.60 1004.69 1004.66 1005.17 1005.44 1005.89 1007.15 1008.25 1009.26 1010.44 1012.17 1013.04 1012.89 1013.20 1013.42 1013.62 1013.96 1014.52 1015.24 1016.53 1017.35 1017.77 1018.09 1018.21 1018.43 1018.60 1018.73 1018.84 1019.02 1019.18 1019.35 1019.38 1019.61 1019.76 1019.86 1019.88 1019.89 1020.00 1020.02 1020.06 1020.25 1020.38 1020.55 1020.49 1020.42
1008.54 1007.42 1005.73 1004.96 1004.28 1004.30 1004.80 1005.17 1005.18 1006.12 1007.04 1007.88 1008.88 1010.02 1012.05 1012.54 1012.78 1013.10 1013.40 1013.76 1014.19 1014.68 1015.22 1016.30 1016.90 1017.72 1018.21 1018.42 1018.60 1018.73 1018.90 1019.08 1019.15 1019.32 1019.45 1019.57 1019.78 1019.87 1019.94 1020.02 1020.10 1020.20 1020.12 1020.26 1020.31 1020.50 1020.59 1020.53 1020.53
1008.50 1007.08 1005.36 1004.14 1003.50 1003.57 1004.92 1005.27 1005.50 1006.38 1007.47 1008.09 1008.87 1009.33 1011.39 1012.11 1012.89 1013.06 1013.39 1013.89 1014.38 1014.93 1015.62 1016.25 1016.82 1017.22 1018.05 1018.28 1018.76 1018.90 1019.07 1019.25 1019.38 1019.52 1019.60 1019.72 1019.87 1019.89 1019.96 1019.96 1020.22 1020.28 1020.20 1020.37 1020.45 1020.63 1020.68 1020.61 1020.54
1008.46 1006.55 1004.81 1003.70 1003.35 1003.86 1005.01 1005.40 1006.20 1007.82 1007.92 1008.47 1008.78 1008.87 1009.93 1012.14 1013.22 1013.26 1013.42 1013.83 1014.46 1015.22 1015.64 1015.96 1016.64 1017.57 1017.69 1017.96 1018.68 1019.06 1019.23 1019.45 1019.51 1019.59 1019.76 1019.50 1018.96 1019.31 1019.36 1020.19 1020.38 1020.48 1020.42 1020.58 1020.56 1020.78 1020.75 1020.66 1020.75
1007.56 1005.80 1004.30 1004.11 1003.87 1003.69 1004.88 1005.20 1006.14 1006.95 1007.47 1008.20 1008.72 1009.38 1010.65 1012.33 1013.21 1013.55 1013.51 1013.60 1014.34 1015.10 1015.64 1015.92 1016.28 1016.86 1018.00 1017.42 1018.57 1018.45 1018.73 1018.54 1018.60 1018.88 1019.30 1018.97 1019.28 1019.38 1019.37 1020.16 1020.52 1020.60 1020.57 1020.66 1020.67 1020.86 1020.63 1020.42 1019.45
1006.32 1005.37 1004.93 1004.48 1004.41 1004.24 1004.40 1004.88 1005.67 1005.93 1006.44 1007.18 1008.14 1009.45 1010.81 1012.17 1012.90 1013.12 1013.36 1013.68 1014.34 1015.14 1015.52 1015.94 1016.48 1017.22 1017.19 1017.66 1017.99 1018.07 1018.18 1018.59 1018.99 1019.51 1019.44 1019.50 1019.44 1019.51 1019.14 1019.78 1019.84 1020.11 1020.32 1019.62 1020.06 1020.32 1019.65 1019.56 1019.28
1006.03 1005.48 1005.13 1004.68 1004.90 1004.25 1004.29 1004.36 1005.03 1005.52 1005.55 1006.39 1008.06 1009.48 1010.36 1011.36 1011.89 1012.32 1012.97 1013.56 1014.38 1015.17 1015.61 1016.17 1016.85 1017.46 1017.38 1017.95 1017.86 1017.90 1018.02 1018.32 1018.48 1019.00 1019.65 1019.56 1019.18 1019.46 1019.44 1019.28 1019.86 1019.99 1019.77 1019.97 1019.72 1019.56 1019.98 1019.93 1020.11
1005.74 1005.20 1004.96 1004.75 1004.79 1004.63 1004.42 1004.47 1004.48 1005.27 1006.15 1006.99 1008.20 1009.51 1010.24 1010.85 1011.62 1012.27 1012.92 1013.57 1014.46 1015.23 1015.74 1016.37 1017.02 1017.65 1017.68 1018.13 1017.85 1017.87 1018.07 1018.20 1018.28 1019.05 1019.47 1019.26 1019.04 1019.41 1019.36 1019.74 1019.68 1019.87 1019.71 1020.06 1019.94 1019.78 1019.96 1020.02 1020.02
1005.11 1005.18 1004.71 1004.59 1004.22 1004.21 1004.04 1004.11 1004.74 1005.08 1006.48 1007.27 1008.30 1009.28 1010.03 1010.53 1011.40 1012.17 1012.71 1013.34 1014.25 1015.12 1015.71 1016.41 1017.10 1017.69 1017.82 1018.02 1018.42 1018.38 1018.33 1018.46 1018.59 1018.77 1019.27 1019.72 1019.23 1019.56 1019.42 1019.76 1019.55 1019.64 1019.53 1019.70 1020.08 1020.24 1020.90 1019.88 1019.78
1005.32 1004.76 1004.48 1004.17 1004.06 1003.73 1003.85 1003.64 1004.06 1005.17 1006.43 1007.38 1008.15 1009.08 1009.87 1010.54 1011.41 1012.05 1012.62 1013.31 1014.14 1014.94 1015.66 1016.30 1016.95 1017.48 1017.86 1018.11 1018.52 1018.48 1018.47 1018.42 1018.50 1018.62 1019.64 1019.62 1019.68 1019.84 1019.75 1019.60 1020.12 1019.92 1019.96 1020.53 1020.63 1020.48 1021.28 1020.04 1019.70
1005.11 1004.66 1003.33 1002.50 1003.15 1003.23 1003.55 1001.82 1003.38 1005.32 1006.05 1007.02 1007.97 1008.82 1009.66 1010.50 1011.10 1011.90 1012.60 1013.33 1014.09 1014.68 1015.51 1016.25 1016.61 1017.16 1017.82 1018.04 1018.44 1018.20 1018.24 1018.30 1018.44 1018.58 1019.05 1019.69 1019.90 1020.02 1019.97 1019.62 1020.58 1020.18 1019.96 1020.00 1019.71 1020.04 1020.38 1019.88 1019.76
1004.02 1002.70 1002.23 1001.70 1002.23 1002.49 1002.84 1001.77 1003.16 1004.82 1005.50 1006.52 1007.66 1008.47 1009.24 1010.17 1010.93 1011.64 1012.36 1013.10 1013.70 1014.52 1015.38 1016.06 1016.57 1016.95 1017.63 1018.10 1018.31 1018.33 1018.48 1018.43 1018.44 1018.53 1018.65 1019.48 1019.79 1020.00 1019.95 1019.44 1020.49 1020.57 1020.05 1019.85 1019.78 1020.05 1019.84 1020.13 1019.93
1002.32 1002.36 1001.08 1001.06 1001.62 1002.10 1001.97 1001.63 1003.28 1004.41 1005.04 1006.00 1007.12 1008.07 1008.73 1009.35 1010.24 1011.26 1012.12 1012.87 1013.46 1014.31 1015.16 1015.93 1016.44 1016.87 1017.55 1017.83 1018.30 1018.15 1018.18 1018.26 1018.24 1018.47 1018.65 1019.32 1019.44 1019.71 1019.82 1019.59 1020.52 1020.44 1020.16 1019.98 1019.76 1020.21 1020.50 1019.90 1020.30
1002.57 1002.06 1001.28 1001.12 1001.17 1001.49 1001.32 1001.37 1002.44 1003.83 1004.57 1005.31 1006.23 1007.28 1008.01 1008.62 1009.61 1010.74 1011.68 1012.53 1013.14 1013.87 1014.70 1015.59 1016.17 1016.77 1017.38 1017.63 1017.73 1017.74 1017.74 1018.01 1018.20 1018.32 1018.80 1019.18 1019.41 1019.55 1019.81 1019.48 1020.36 1020.28 1020.20 1020.29 1020.53 1020.60 1020.82 1020.32 1020.69
1003.53 1002.95 1002.04 1001.53 1001.34 1001.40 1000.82 1000.70 1001.02 1002.59 1003.71 1004.37 1005.25 1006.28 1007.13 1008.02 1008.88 1009.98 1010.95 1011.73 1012.48 1013.28 1014.13 1015.10 1015.85 1016.50 1017.12 1017.22 1017.32 1017.32 1017.45 1017.58 1017.71 1017.92 1018.40 1018.83 1019.09 1019.39 1019.57 1019.73 1020.04 1020.45 1020.44 1020.64 1020.64 1020.57 1019.98 1020.09 1020.59
1003.77 1003.02 1002.33 1001.98 1001.65 1001.70 1001.00 1000.21 1000.31 1000.90 1002.79 1003.59 1004.60 1005.72 1006.50 1007.21 1008.00 1009.06 1010.05 1010.84 1011.75 1012.47 1013.43 1014.41 1015.38 1016.04 1016.67 1016.81 1017.20 1017.43 1017.47 1017.59 1017.92 1017.94 1018.14 1018.36 1018.75 1019.04 1019.39 1019.71 1019.88 1020.25 1020.31 1020.43 1020.47 1020.48 1020.33 1019.96 1020.64
1003.12 1003.38 1003.18 1002.79 1002.41 1000.70 1001.04 999.38 999.41 1000.05 1001.30 1002.48 1003.44 1004.49 1005.23 1006.23 1007.23 1008.04 1009.05 1009.96 1010.63 1011.55 1012.69 1013.77 1014.80 1015.56 1016.15 1016.69 1016.73 1016.95 1016.85 1016.87 1017.07 1017.44 1017.60 1017.88 1018.44 1018.66 1019.01 1019.50 1019.69 1020.01 1020.42 1020.50 1020.34 1020.29 1020.17 1020.26 1020.10
1003.24 1003.10 1003.22 1003.25 1002.64 1001.72 1000.02 999.62 998.34 998.79 999.54 1000.77 1002.05 1002.94 1003.94 1005.16 1005.95 1006.58 1007.54 1008.62 1009.70 1010.82 1011.63 1012.78 1014.04 1014.95 1015.40 1016.04 1016.27 1016.68 1016.68 1016.45 1016.82 1017.21 1017.65 1017.93 1018.27 1018.52 1018.61 1019.01 1019.34 1019.56 1020.09 1020.28 1020.40 1020.53 1020.49 1020.28 1019.88
1003.76 1003.60 1003.23 1003.05 1002.40 1000.76 999.86 999.10 997.54 997.19 997.86 999.32 1000.39 1001.52 1002.68 1003.56 1004.72 1005.53 1006.56 1007.85 1008.82 1009.89 1010.90 1011.83 1012.98 1013.98 1014.83 1015.40 1016.10 1016.29 1016.31 1016.27 1016.39 1016.98 1017.26 1017.52 1017.79 1018.15 1018.48 1018.66 1019.09 1019.42 1019.47 1019.96 1020.15 1020.22 1020.49 1020.34 1020.23
1003.47 1002.56 1001.70 1001.46 1000.54 998.77 999.15 998.66 997.42 996.73 996.88 998.05 998.80 999.98 1001.16 1002.32 1003.46 1004.54 1005.46 1006.40 1007.58 1008.53 1009.58 1010.67 1011.88 1012.98 1013.81 1014.47 1015.14 1015.76 1016.16 1016.46 1016.52 1016.80 1016.98 1016.91 1017.11 1017.38 1017.82 1018.48 1018.80 1018.87 1019.27 1019.42 1019.81 1020.31 1020.26 1020.48 1020.38
1002.30 1001.77 999.90 998.86 997.97 997.78 998.44 996.40 996.61 997.44 997.16 996.92 997.81 998.48 999.96 1001.14 1002.16 1003.31 1004.33 1005.36 1006.34 1007.37 1008.51 1009.64 1010.60 1011.80 1012.71 1013.49 1014.14 1014.92 1015.53 1015.81 1016.19 1016.53 1016.23 1016.57 1016.56 1016.79 1017.22 1017.93 1018.20 1018.52 1018.70 1019.03 1019.38 1019.64 1019.87 1019.90 1020.33
1001.60 1001.26 1000.52 999.07 997.79 996.94 995.80 996.63 996.79 996.46 997.06 997.54 997.82 997.78 998.36 999.72 1000.76 1001.86 1003.06 1004.08 1005.07 1006.27 1007.26 1008.27 1009.32 1010.63 1011.56 1012.34 1013.33 1014.03 1014.70 1015.14 1015.24 1015.73 1016.17 1016.25 1016.48 1016.45 1017.02 1017.45 1017.89 1018.08 1018.36 1018.62 1018.88 1019.24 1019.49 1019.62 1020.04
1002.59 1001.20 1000.94 999.75 998.19 996.57 995.84 995.41 995.41 996.00 996.06 996.52 996.87 997.44 997.80 998.56 999.62 1000.66 1001.79 1002.92 1003.89 1004.92 1006.19 1007.50 1008.56 1009.41 1010.21 1011.30 1012.20 1012.98 1013.73 1014.46 1014.86 1015.30 1015.70 1015.86 1016.04 1016.56 1016.61 1017.23 1017.48 1017.76 1017.99 1018.22 1018.59 1018.71 1019.04 1019.40 1019.43
1002.94 1002.16 1001.11 999.94 999.09 997.19 996.24 994.76 994.79 995.08 995.52 995.81 996.04 996.16 996.63 997.48 998.34 999.36 1000.33 1001.56 1002.76 1003.88 1005.15 1006.24 1007.45 1008.48 1009.41 1010.10 1010.89 1011.86 1012.62 1013.37 1014.14 1014.63 1015.16 1015.63 1015.97 1016.17 1016.58 1016.79 1017.06 1017.25 1017.56 1017.89 1018.24 1018.46 1018.54 1018.85 1019.13
1003.70 1002.04 1001.41 999.86 999.08 998.16 996.83 994.92 994.41 994.98 995.10 995.21 995.66 995.43 995.68 996.21 997.04 998.07 998.99 1000.41 1001.74 1002.74 1003.71 1004.84 1006.00 1007.15 1008.01 1008.66 1009.72 1010.72 1011.61 1012.36 1013.11 1013.84 1014.32 1014.93 1015.42 1015.78 1015.95 1016.22 1016.58 1016.75 1016.94 1017.30 1017.70 1017.98 1017.95 1018.35 1018.59
Wind_Speed
13 11 3 2 3 6 1 5 8 13 13 7 10 4 8 9 8 8 20 15 20 18 16 15 13 15 14 13 13 13 13 13 13 12 12 11 11 10 11 11 10 10 8 9 9 9 9 10 10
6 6 2 2 5 2 6 4 10 9 12 14 9 12 5 9 8 17 16 20 20 17 16 16 11 13 13 13 13 13 12 12 12 12 12 12 11 10 11 11 10 9 9 9 9 9 9 11 11
12 5 1 2 3 1 5 5 12 15 19 13 7 7 2 6 10 20 19 23 20 16 15 15 14 13 13 13 12 12 12 12 12 12 12 12 11 10 11 10 10 10 9 8 8 9 10 10 10
9 6 5 5 7 7 5 8 15 17 14 7 15 8 6 6 20 12 24 22 19 16 15 15 15 14 13 12 12 12 12 12 12 12 10 11 12 12 12 10 9 8 9 8 7 8 8 8 8
6 4 5 6 2 4 6 15 16 14 12 11 6 9 6 10 8 22 23 20 19 17 17 15 14 13 13 14 13 13 12 12 12 12 12 12 11 11 12 10 9 8 7 8 8 7 8 9 10
4 5 7 3 6 6 6 9 12 9 9 12 9 9 6 14 18 23 21 20 18 16 17 16 14 14 14 14 12 12 11 12 12 12 12 12 11 11 11 10 8 8 7 6 7 7 8 9 10
7 6 5 5 2 7 5 6 10 10 10 11 12 7 10 17 22 21 20 19 17 15 14 14 14 13 13 13 12 11 11 12 11 12 11 11 10 12 10 10 8 8 7 7 7 7 7 7 8
6 5 5 6 4 6 8 9 8 9 8 9 9 8 13 19 21 21 20 19 17 15 13 13 12 12 13 12 11 12 10 12 11 11 9 11 12 12 10 11 9 7 7 8 7 7 7 8 11
5 6 6 3 2 10 10 10 6 5 11 5 8 5 20 27 22 19 19 19 16 13 13 13 13 13 11 11 10 10 10 9 10 10 7 11 8 9 10 12 8 7 7 9 7 7 6 9 11
10 6 2 4 3 3 12 9 11 10 13 7 8 11 25 28 23 22 21 20 19 17 15 12 12 12 10 9 10 9 9 8 6 6 5 4 5 6 8 9 8 6 6 7 7 6 6 13 9
11 10 3 1 5 2 9 10 9 9 10 12 15 23 28 27 23 24 22 21 19 17 13 14 11 11 10 8 7 6 5 6 6 7 4 5 5 7 4 6 6 7 8 7 10 9 7 5 4
10 11 7 6 1 2 5 8 9 10 10 11 17 24 29 29 26 24 23 21 19 17 15 14 13 10 8 7 7 6 6 6 6 7 5 4 4 4 4 4 5 3 4 3 2 3 4 4 3
17 8 7 8 7 5 3 7 4 10 4 13 19 24 28 27 25 22 21 20 19 17 16 14 13 11 9 8 6 6 6 6 6 6 5 3 3 3 4 4 5 3 3 4 4 4 1 4 5
4 17 12 7 8 4 5 7 7 8 10 15 20 25 26 26 26 22 21 20 19 18 17 16 14 13 10 9 7 5 5 5 5 5 5 4 2 2 4 4 4 4 3 5 2 5 4 0 3
14 8 14 18 16 11 7 12 11 13 14 16 20 22 25 24 24 23 21 20 19 17 17 16 15 14 11 9 9 7 6 6 5 5 6 5 3 4 1 3 2 2 4 4 3 4 1 4 3
16 15 16 14 18 14 11 11 15 15 16 17 19 21 23 24 24 20 20 19 19 17 17 16 14 15 13 9 8 7 6 6 5 5 7 6 4 2 4 4 5 3 2 4 5 3 7 5 4
12 13 21 15 13 13 17 12 16 15 15 16 18 20 22 22 23 22 21 19 19 17 17 17 15 15 14 10 8 7 7 6 6 5 5 7 5 4 3 3 5 4 3 3 5 5 2 4 3
16 19 16 21 13 20 18 14 12 14 14 15 17 18 21 22 24 22 21 19 18 18 17 16 14 14 13 9 8 7 7 7 6 5 5 6 5 5 4 2 5 4 3 3 3 1 4 1 3
8 13 20 12 13 17 20 17 16 14 15 16 17 19 21 22 23 22 21 21 20 19 18 17 16 14 11 10 10 9 9 7 6 5 5 5 6 5 4 3 4 4 4 1 2 5 6 6 4
17 13 15 11 10 14 19 21 16 18 16 17 18 19 21 21 23 23 23 22 22 21 19 18 17 16 13 10 9 8 8 8 7 6 5 6 7 7 5 3 5 4 3 6 5 4 4 4 4
20 20 14 13 12 14 16 21 22 18 15 15 17 17 19 22 24 25 25 24 23 22 21 19 18 17 15 12 9 7 7 5 6 6 7 7 7 7 6 5 3 4 4 5 6 5 5 6 4
21 19 17 13 12 14 19 16 20 20 18 19 18 20 21 23 23 23 25 25 25 23 21 20 19 18 16 15 12 13 10 9 8 7 7 7 8 7 7 6 5 4 5 4 5 5 4 4 6
17 15 16 16 16 17 17 18 17 25 24 22 21 22 22 23 25 25 27 26 25 23 22 21 20 18 16 16 13 12 12 10 8 7 8 7 7 7 7 6 5 4 4 6 4 4 5 5 2
12 17 16 16 15 19 24 19 20 22 24 21 21 22 22 24 25 25 24 24 23 23 22 21 21 19 18 18 18 14 14 11 10 10 9 8 8 8 8 8 7 5 4 5 5 6 6 6 3
16 17 11 13 16 17 20 21 18 18 20 20 22 22 23 23 24 24 24 25 24 26 25 22 21 20 20 21 19 18 16 15 13 11 10 9 8 7 9 9 9 8 8 5 5 6 4 6 6
24 20 12 19 16 18 20 18 21 25 14 14 17 21 21 22 22 24 25 24 25 26 26 24 22 22 23 21 19 17 17 13 13 13 10 10 9 8 8 10 10 10 8 7 6 6 7 6 6
20 26 22 24 16 13 16 20 18 21 26 18 13 16 18 22 23 26 26 26 26 26 26 25 23 22 22 23 18 18 17 17 14 13 13 10 9 7 8 10 12 10 10 9 8 7 6 5 7
21 12 23 17 21 21 14 17 12 23 22 26 25 19 18 19 21 22 24 25 24 26 25 26 24 24 23 23 20 18 18 17 15 14 14 12 12 11 9 10 12 11 11 10 10 8 8 7 6
18 20 16 19 19 17 17 13 12 14 22 22 24 24 22 18 20 21 22 24 25 23 24 26 25 25 23 22 20 19 19 20 18 16 15 14 13 13 13 11 12 12 11 11 10 10 9 9 8
16 14 27 15 25 20 18 7 11 11 14 17 22 19 21 23 22 21 21 22 23 25 25 26 26 25 24 22 20 21 19 18 19 17 17 15 15 15 15 13 12 12 13 12 12 12 10 11 11
Wind_Direction
170 177 147 214 246 236 59 82 102 108 118 126 136 117 106 3 3 81 135 143 140 142 140 144 136 130 128 126 125 125 120 124 126 129 132 129 120 120 118 114 117 101 99 95 95 86 97 94 99
161 148 104 256 264 260 83 109 105 102 109 118 107 130 72 93 67 128 138 143 146 143 150 138 132 127 128 125 120 119 120 126 124 121 122 121 120 127 122 114 112 106 98 90 98 103 112 107 104
172 175 241 238 229 7 97 109 105 110 129 142 103 53 12 84 117 140 136 145 147 150 135 121 131 133 127 124 122 117 117 116 118 123 123 125 126 130 114 110 104 104 97 94 93 95 100 110 109
175 189 228 253 182 76 108 125 129 129 147 150 120 94 100 20 141 142 144 149 145 140 136 133 135 131 129 124 120 120 116 113 115 119 115 126 127 127 128 114 100 100 111 104 96 96 99 109 119
216 246 225 243 173 105 90 126 154 142 145 147 153 118 79 134 138 145 149 153 149 147 135 144 138 135 132 127 124 124 114 117 117 112 113 116 122 118 107 109 107 104 103 106 108 104 103 95 116
211 258 242 224 115 121 115 151 161 142 146 133 123 114 114 154 160 156 154 155 151 145 145 139 138 134 132 124 126 125 119 120 118 117 117 113 113 117 112 116 104 103 104 108 118 117 104 105 109
257 231 273 270 166 171 142 180 166 148 158 164 125 118 125 157 156 158 159 153 151 148 138 145 145 134 136 132 133 123 118 112 116 117 116 118 114 104 104 101 102 100 113 116 123 122 119 111 117
266 260 253 213 157 121 160 181 153 152 126 117 171 152 160 159 159 160 158 156 155 148 147 147 147 146 143 148 137 131 118 115 115 114 116 117 113 111 117 131 102 99 110 117 122 120 104 84 105
262 256 232 111 211 108 142 167 137 65 146 170 181 152 146 148 160 163 160 162 155 160 159 157 155 153 117 139 128 135 124 115 124 133 125 182 118 129 141 72 109 102 113 111 124 122 117 119 106
219 263 7 27 34 107 153 201 149 174 154 149 150 117 144 153 161 161 171 164 165 165 167 162 160 147 155 140 156 150 140 155 132 120 136 133 118 80 90 98 109 123 118 114 124 127 188 216 141
217 252 234 83 41 79 162 181 165 160 180 164 156 146 153 158 167 172 171 169 169 169 172 162 152 158 168 129 162 161 163 143 141 140 172 102 150 158 162 124 156 137 185 160 169 173 203 89 87
251 237 274 126 129 80 163 158 180 188 57 149 151 157 159 166 172 172 172 173 168 174 174 163 158 164 172 160 183 161 152 161 161 136 154 140 180 160 144 129 125 185 127 129 187 122 72 126 88
223 249 251 233 240 280 150 187 145 190 111 136 147 162 168 170 170 174 174 173 169 178 175 169 166 169 171 180 170 166 153 183 135 160 149 147 149 132 151 130 134 192 144 161 154 133 122 156 135
210 235 250 221 231 225 239 172 199 162 138 145 158 168 173 175 171 176 179 176 174 181 177 172 176 172 179 186 170 166 183 143 187 157 130 165 179 147 137 154 153 150 187 102 108 73 25 263 153
234 237 228 241 247 238 239 224 206 134 159 159 166 172 176 178 176 180 181 180 177 182 175 176 182 174 187 183 178 190 169 174 174 148 149 142 200 151 219 152 83 165 103 120 150 171 158 181 147
220 233 243 219 213 220 218 224 161 161 166 167 169 175 179 180 183 182 183 184 180 185 178 183 188 177 183 184 185 188 174 172 173 162 153 160 157 178 204 174 128 137 184 190 127 166 190 156 116
199 216 223 206 209 198 210 236 135 169 176 170 175 179 182 182 190 184 185 188 183 186 180 187 190 183 183 183 191 201 167 201 184 182 172 150 180 168 211 183 138 170 173 169 135 194 214 117 104
200 221 222 217 184 212 199 230 149 177 182 177 179 182 188 188 190 185 189 191 188 187 184 190 187 185 186 183 200 198 177 195 185 189 192 164 187 194 226 132 143 172 184 195 120 101 71 167 172
291 224 237 210 215 208 221 223 163 177 191 185 185 187 190 193 185 187 192 190 193 191 187 189 189 184 188 193 195 193 195 189 194 210 209 204 205 193 204 217 132 194 162 188 145 165 163 142 132
236 236 236 247 212 232 224 226 209 176 199 193 191 190 191 190 189 190 191 193 196 192 191 191 194 186 195 194 203 201 203 191 203 199 184 203 189 184 192 246 133 170 137 176 194 230 174 133 163
229 227 231 236 210 226 243 232 218 194 195 207 199 198 194 192 193 191 193 197 195 194 194 194 195 190 193 202 195 191 196 216 199 188 188 186 195 186 204 186 250 167 189 179 200 194 217 148 169
232 216 244 235 247 234 207 232 216 212 206 209 198 197 198 193 197 193 194 198 198 198 194 195 196 197 191 196 192 194 197 198 198 195 195 179 197 194 197 197 199 188 146 186 181 211 183 251 161
244 243 218 232 238 256 240 230 234 207 208 205 204 203 201 195 196 196 197 197 200 198 197 194 195 198 197 190 214 195 219 202 196 206 172 221 179 205 215 211 201 201 168 176 199 174 239 176 253
226 232 228 231 233 235 232 236 218 228 206 204 206 203 203 193 199 201 197 196 199 199 199 197 194 196 197 194 201 207 205 223 205 204 194 204 205 190 210 204 209 199 210 201 205 200 197 260 240
214 207 196 211 212 234 217 234 236 221 212 215 207 201 200 201 197 198 198 197 197 199 197 198 192 196 196 197 196 203 213 210 209 202 211 213 211 210 192 210 202 201 208 211 214 192 190 197 222
212 211 229 213 212 226 213 227 223 238 269 211 222 202 198 201 202 199 202 201 197 199 198 198 190 193 197 198 197 197 201 209 213 208 223 216 223 208 217 206 220 213 212 213 197 207 215 182 209
199 219 227 255 251 256 217 209 247 212 222 217 221 229 192 200 204 201 201 202 199 198 198 196 194 192 195 196 195 196 198 212 211 220 207 225 228 236 218 218 221 220 217 215 209 232 202 214 209
259 219 220 237 241 242 220 235 207 207 218 213 217 206 212 200 205 205 202 203 201 199 199 198 197 193 193 195 195 199 200 205 217 211 221 219 224 223 236 214 222 218 216 215 213 226 210 226 224
207 238 241 232 230 242 235 222 226 229 211 219 222 220 205 205 204 204 203 205 205 203 197 198 198 197 198 198 195 200 201 205 210 218 219 222 220 211 220 217 218 213 212 211 213 233 250 222 227
309 263 224 232 221 237 271 246 210 193 227 214 229 219 222 212 209 208 207 199 202 203 200 198 197 199 200 197 194 195 198 202 205 212 214 211 216 212 215 214 217 216 215 214 215 222 233 226 233